Time,TemperatureF,DewpointF,PressureIn,WindDirection,WindDirectionDegrees,WindSpeedMPH,WindSpeedGustMPH,Humidity,HourlyPrecipIn,Conditions,Clouds,dailyrainin,SoftwareType,DateUTC
2013-03-22 00:02:00,35.0,35.0,-100.00,SSW,198,0.0,0.0,100,0.00,,,0.00,,2013-03-22 07:02:00,
2013-03-22 00:11:00,35.0,35.0,-100.00,SSW,198,0.0,0.0,100,0.00,,,0.00,,2013-03-22 07:11:00,
2013-03-22 00:21:00,35.0,35.0,-100.00,SSW,198,0.0,0.0,100,0.00,,,0.00,,2013-03-22 07:21:00,
2013-03-22 00:32:00,35.0,35.0,-100.00,SSW,198,0.0,0.0,100,0.00,,,0.00,,2013-03-22 07:32:00,
2013-03-22 00:41:00,35.0,35.0,-100.00,SSW,198,0.0,0.0,100,0.00,,,0.00,,2013-03-22 07:41:00,
2013-03-22 00:52:00,35.0,35.0,-100.00,SSW,198,0.0,0.0,100,0.00,,,0.00,,2013-03-22 07:52:00,
2013-03-22 01:02:00,35.0,35.0,-100.00,SSW,198,0.0,0.0,100,0.00,,,0.00,,2013-03-22 08:02:00,
2013-03-22 01:11:00,35.0,35.0,-100.00,SSW,198,0.0,0.0,100,0.00,,,0.00,,2013-03-22 08:11:00,
2013-03-22 01:21:00,34.0,34.0,-100.00,SSW,198,0.0,0.0,100,0.00,,,0.00,,2013-03-22 08:21:00,
2013-03-22 01:32:00,34.0,34.0,-100.00,SSW,198,0.0,0.0,100,0.00,,,0.00,,2013-03-22 08:32:00,
2013-03-22 01:41:00,34.0,34.0,-100.00,SSW,198,0.0,0.0,100,0.00,,,0.00,,2013-03-22 08:41:00,
2013-03-22 01:51:00,33.0,33.0,-100.00,SSW,198,0.0,0.0,100,0.00,,,0.00,,2013-03-22 08:51:00,
2013-03-22 02:02:00,33.0,33.0,-100.00,SSW,198,0.0,0.0,100,0.00,,,0.00,,2013-03-22 09:02:00,
2013-03-22 02:11:00,33.0,33.0,-100.00,SSW,198,0.0,0.0,100,0.00,,,0.00,,2013-03-22 09:11:00,
2013-03-22 02:22:00,33.0,33.0,-100.00,SSW,198,0.0,0.0,100,0.00,,,0.00,,2013-03-22 09:22:00,
2013-03-22 02:32:00,32.0,32.0,-100.00,SSW,198,0.0,0.0,100,0.00,,,0.00,,2013-03-22 09:32:00,
2013-03-22 02:42:00,32.0,32.0,-100.00,SSW,198,0.0,0.0,100,0.00,,,0.00,,2013-03-22 09:42:00,
2013-03-22 02:53:00,32.0,32.0,-100.00,SSW,198,0.0,0.0,100,0.00,,,0.00,,2013-03-22 09:53:00,
2013-03-22 03:03:00,31.0,31.0,-100.00,SSW,198,0.0,0.0,100,0.00,,,0.00,,2013-03-22 10:03:00,
2013-03-22 03:11:00,31.0,31.0,-100.00,SSW,198,0.0,0.0,100,0.00,,,0.00,,2013-03-22 10:11:00,
2013-03-22 03:22:00,31.0,31.0,-100.00,SSW,198,0.0,0.0,100,0.00,,,0.00,,2013-03-22 10:22:00,
2013-03-22 03:32:00,31.0,31.0,-100.00,SSW,198,0.0,0.0,100,0.00,,,0.00,,2013-03-22 10:32:00,
2013-03-22 03:42:00,31.0,31.0,-100.00,SSW,198,0.0,0.0,100,0.00,,,0.00,,2013-03-22 10:42:00,
2013-03-22 03:52:00,30.0,30.0,-100.00,SSW,198,0.0,0.0,100,0.00,,,0.00,,2013-03-22 10:52:00,
2013-03-22 04:02:00,30.0,30.0,-100.00,SSW,198,0.0,0.0,100,0.00,,,0.00,,2013-03-22 11:02:00,
2013-03-22 04:11:00,30.0,30.0,-100.00,SSW,198,0.0,0.0,100,0.00,,,0.00,,2013-03-22 11:11:00,
2013-03-22 04:22:00,31.0,31.0,-100.00,SSW,198,0.0,0.0,100,0.00,,,0.00,,2013-03-22 11:22:00,
2013-03-22 04:32:00,30.0,30.0,-100.00,SSW,198,0.0,0.0,100,0.00,,,0.00,,2013-03-22 11:32:00,
2013-03-22 04:41:00,30.0,30.0,-100.00,SSW,198,0.0,0.0,100,0.00,,,0.00,,2013-03-22 11:41:00,
2013-03-22 04:52:00,31.0,31.0,-100.00,SSW,198,0.0,0.0,100,0.00,,,0.00,,2013-03-22 11:52:00,
2013-03-22 05:02:00,30.0,30.0,-100.00,SSW,198,0.0,0.0,100,0.00,,,0.00,,2013-03-22 12:02:00,
2013-03-22 05:11:00,29.0,29.0,-100.00,SSW,198,0.0,0.0,100,0.00,,,0.00,,2013-03-22 12:11:00,
2013-03-22 05:21:00,29.0,29.0,-100.00,SSW,198,0.0,0.0,100,0.00,,,0.00,,2013-03-22 12:21:00,
2013-03-22 05:32:00,29.0,29.0,-100.00,SSW,198,0.0,0.0,100,0.00,,,0.00,,2013-03-22 12:32:00,
2013-03-22 05:41:00,29.0,29.0,-100.00,SSW,198,0.0,0.0,100,0.00,,,0.00,,2013-03-22 12:41:00,
2013-03-22 05:51:00,29.0,29.0,-100.00,SSW,198,0.0,0.0,100,0.00,,,0.00,,2013-03-22 12:51:00,
2013-03-22 06:02:00,28.0,28.0,-100.00,SSW,198,0.0,0.0,100,0.00,,,0.00,,2013-03-22 13:02:00,
2013-03-22 06:11:00,28.0,28.0,-100.00,SSW,198,0.0,0.0,100,0.00,,,0.00,,2013-03-22 13:11:00,
2013-03-22 06:21:00,28.0,28.0,-100.00,SSW,198,0.0,0.0,100,0.00,,,0.00,,2013-03-22 13:21:00,
2013-03-22 06:32:00,28.0,28.0,-100.00,SSW,198,0.0,0.0,100,0.00,,,0.00,,2013-03-22 13:32:00,
2013-03-22 06:41:00,28.0,28.0,-100.00,SSW,198,0.0,0.0,100,0.00,,,0.00,,2013-03-22 13:41:00,
2013-03-22 06:52:00,28.0,28.0,-100.00,SSW,198,0.0,0.0,100,0.00,,,0.00,,2013-03-22 13:52:00,
2013-03-22 07:02:00,28.0,28.0,-100.00,SSW,198,0.0,0.0,100,0.00,,,0.00,,2013-03-22 14:02:00,
2013-03-22 07:11:00,28.0,28.0,-100.00,SSW,198,0.0,0.0,100,0.00,,,0.00,,2013-03-22 14:11:00,
2013-03-22 07:21:00,28.0,28.0,-100.00,SSW,198,0.0,0.0,100,0.00,,,0.00,,2013-03-22 14:21:00,
2013-03-22 07:32:00,28.0,28.0,-100.00,SSW,198,0.0,0.0,100,0.00,,,0.00,,2013-03-22 14:32:00,
2013-03-22 07:42:00,28.0,28.0,-100.00,SSW,198,0.0,0.0,100,0.00,,,0.00,,2013-03-22 14:42:00,
2013-03-22 07:51:00,28.0,28.0,-100.00,SSW,198,0.0,0.0,100,0.00,,,0.00,,2013-03-22 14:51:00,
2013-03-22 08:02:00,29.0,29.0,-100.00,SSW,198,0.0,0.0,100,0.00,,,0.00,,2013-03-22 15:02:00,
2013-03-22 08:11:00,29.0,29.0,-100.00,SSW,198,0.0,0.0,100,0.00,,,0.00,,2013-03-22 15:11:00,
2013-03-22 08:21:00,30.0,30.0,-100.00,SSW,198,0.0,0.0,100,0.00,,,0.00,,2013-03-22 15:21:00,
2013-03-22 08:32:00,32.0,32.0,-100.00,SSW,198,0.0,0.0,100,0.00,,,0.00,,2013-03-22 15:32:00,
2013-03-22 08:42:00,32.0,32.0,-100.00,SSW,198,0.0,0.0,100,0.00,,,0.00,,2013-03-22 15:42:00,
2013-03-22 08:52:00,33.0,33.0,-100.00,SSW,198,0.0,0.0,100,0.00,,,0.00,,2013-03-22 15:52:00,
2013-03-22 09:02:00,35.0,35.0,-100.00,SSW,198,0.0,0.0,100,0.00,,,0.00,,2013-03-22 16:02:00,
2013-03-22 09:12:00,35.0,35.0,-100.00,SSW,198,0.0,0.0,100,0.00,,,0.00,,2013-03-22 16:12:00,
2013-03-22 09:22:00,35.0,35.0,-100.00,SSW,198,0.0,0.0,100,0.00,,,0.00,,2013-03-22 16:22:00,
2013-03-22 09:32:00,36.0,36.0,-100.00,SSW,198,0.0,0.0,100,0.00,,,0.00,,2013-03-22 16:32:00,
2013-03-22 09:42:00,37.0,37.0,-100.00,SSW,198,0.0,0.0,100,0.00,,,0.00,,2013-03-22 16:42:00,
2013-03-22 09:52:00,37.0,37.0,-100.00,SSW,198,0.0,0.0,100,0.00,,,0.00,,2013-03-22 16:52:00,
2013-03-22 10:02:00,42.0,42.0,-100.00,SSW,198,0.0,0.0,100,0.00,,,0.00,,2013-03-22 17:02:00,
2013-03-22 10:12:00,42.0,42.0,-100.00,SSW,198,0.0,0.0,100,0.00,,,0.00,,2013-03-22 17:12:00,
2013-03-22 10:32:00,41.0,41.0,-100.00,SSW,198,0.0,0.0,100,0.00,,,0.00,,2013-03-22 17:32:00,
2013-03-22 10:52:00,40.0,40.0,-100.00,SSW,198,0.0,0.0,100,0.00,,,0.00,,2013-03-22 17:52:00,
2013-03-22 11:02:00,40.0,40.0,-100.00,SSW,198,0.0,0.0,100,0.00,,,0.00,,2013-03-22 18:02:00,
2013-03-22 11:21:00,41.0,41.0,-100.00,SSW,198,0.0,0.0,100,0.00,,,0.00,,2013-03-22 18:21:00,
2013-03-22 11:32:00,42.0,42.0,-100.00,SSW,198,0.0,0.0,100,0.00,,,0.00,,2013-03-22 18:32:00,
2013-03-22 11:52:00,44.0,44.0,-100.00,SSW,198,0.0,0.0,100,0.00,,,0.00,,2013-03-22 18:52:00,
2013-03-22 12:02:00,45.0,45.0,-100.00,SSW,198,0.0,0.0,100,0.00,,,0.00,,2013-03-22 19:02:00,
2013-03-22 12:11:00,46.0,46.0,-100.00,SSW,198,0.0,0.0,100,0.00,,,0.00,,2013-03-22 19:11:00,
2013-03-22 12:32:00,48.0,48.0,-100.00,SSW,198,0.0,0.0,100,0.00,,,0.00,,2013-03-22 19:32:00,
2013-03-22 12:51:00,46.0,46.0,-100.00,SSW,198,0.0,0.0,100,0.00,,,0.00,,2013-03-22 19:51:00,
2013-03-22 13:01:00,43.0,43.0,-100.00,SSW,198,0.0,0.0,100,0.00,,,0.00,,2013-03-22 20:01:00,
2013-03-22 13:11:00,44.0,44.0,-100.00,SSW,198,0.0,0.0,100,0.00,,,0.00,,2013-03-22 20:11:00,
2013-03-22 13:22:00,44.0,44.0,-100.00,SSW,198,0.0,0.0,100,0.00,,,0.00,,2013-03-22 20:22:00,
2013-03-22 13:32:00,46.0,46.0,-100.00,SSW,198,0.0,0.0,100,0.00,,,0.00,,2013-03-22 20:32:00,
2013-03-22 13:51:00,45.0,45.0,-100.00,SSW,198,0.0,0.0,100,0.00,,,0.00,,2013-03-22 20:51:00,
2013-03-22 14:02:00,43.0,43.0,-100.00,SSW,198,0.0,0.0,100,0.00,,,0.00,,2013-03-22 21:02:00,
2013-03-22 14:11:00,44.0,44.0,-100.00,SSW,198,0.0,0.0,100,0.00,,,0.00,,2013-03-22 21:11:00,
2013-03-22 14:32:00,45.0,45.0,-100.00,SSW,198,0.0,0.0,100,0.00,,,0.00,,2013-03-22 21:32:00,
2013-03-22 15:02:00,46.0,46.0,-100.00,SSW,198,0.0,0.0,100,0.00,,,0.00,,2013-03-22 22:02:00,
2013-03-22 15:22:00,44.0,44.0,-100.00,SSW,198,0.0,0.0,100,0.00,,,0.00,,2013-03-22 22:22:00,
2013-03-22 15:32:00,46.0,46.0,-100.00,SSW,198,0.0,0.0,100,0.00,,,0.00,,2013-03-22 22:32:00,
2013-03-22 15:52:00,45.0,45.0,-100.00,SSW,198,0.0,0.0,100,0.00,,,0.00,,2013-03-22 22:52:00,
2013-03-22 16:02:00,48.0,48.0,-100.00,SSW,198,0.0,0.0,100,0.00,,,0.00,,2013-03-22 23:02:00,
2013-03-22 16:21:00,47.0,47.0,-100.00,SSW,198,0.0,0.0,100,0.00,,,0.00,,2013-03-22 23:21:00,
2013-03-22 16:32:00,46.0,46.0,-100.00,SSW,198,0.0,0.0,100,0.00,,,0.00,,2013-03-22 23:32:00,
2013-03-22 16:52:00,46.0,46.0,-100.00,SSW,198,0.0,0.0,100,0.00,,,0.00,,2013-03-22 23:52:00,
2013-03-22 17:02:00,45.0,45.0,-100.00,SSW,198,0.0,0.0,100,0.00,,,0.00,,2013-03-23 00:02:00,
2013-03-22 17:22:00,45.0,45.0,-100.00,SSW,198,0.0,0.0,100,0.00,,,0.00,,2013-03-23 00:22:00,
2013-03-22 17:32:00,45.0,45.0,-100.00,SSW,198,0.0,0.0,100,0.00,,,0.00,,2013-03-23 00:32:00,
2013-03-22 17:41:00,44.0,44.0,-100.00,SSW,198,0.0,0.0,100,0.00,,,0.00,,2013-03-23 00:41:00,
2013-03-22 17:51:00,44.0,44.0,-100.00,SSW,198,0.0,0.0,100,0.00,,,0.00,,2013-03-23 00:51:00,
2013-03-22 18:03:00,43.0,43.0,-100.00,SSW,198,0.0,0.0,100,0.00,,,0.00,,2013-03-23 01:03:00,
2013-03-22 18:31:00,42.0,42.0,-100.00,SSW,198,0.0,0.0,100,0.00,,,0.00,,2013-03-23 01:31:00,
2013-03-22 18:52:00,42.0,42.0,-100.00,SSW,198,0.0,0.0,100,0.00,,,0.00,,2013-03-23 01:52:00,
2013-03-22 19:02:00,42.0,42.0,-100.00,SSW,198,0.0,0.0,100,0.00,,,0.00,,2013-03-23 02:02:00,
2013-03-22 19:22:00,41.0,41.0,-100.00,SSW,198,0.0,0.0,100,0.00,,,0.00,,2013-03-23 02:22:00,
2013-03-22 19:31:00,39.0,39.0,-100.00,SSW,198,0.0,0.0,100,0.00,,,0.00,,2013-03-23 02:31:00,
2013-03-22 19:51:00,39.0,39.0,-100.00,SSW,198,0.0,0.0,100,0.00,,,0.00,,2013-03-23 02:51:00,
2013-03-22 20:02:00,37.0,37.0,-100.00,SSW,198,0.0,0.0,100,0.00,,,0.00,,2013-03-23 03:02:00,
2013-03-22 20:11:00,37.0,37.0,-100.00,SSW,198,0.0,0.0,100,0.00,,,0.00,,2013-03-23 03:11:00,
2013-03-22 20:22:00,37.0,37.0,-100.00,SSW,198,0.0,0.0,100,0.00,,,0.00,,2013-03-23 03:22:00,
2013-03-22 20:32:00,36.0,36.0,-100.00,SSW,198,0.0,0.0,100,0.00,,,0.00,,2013-03-23 03:32:00,
2013-03-22 20:42:00,36.0,36.0,-100.00,SSW,198,0.0,0.0,100,0.00,,,0.00,,2013-03-23 03:42:00,
2013-03-22 20:52:00,35.0,35.0,-100.00,SSW,198,0.0,0.0,100,0.00,,,0.00,,2013-03-23 03:52:00,
2013-03-22 21:02:00,34.0,34.0,-100.00,SSW,198,0.0,0.0,100,0.00,,,0.00,,2013-03-23 04:02:00,
2013-03-22 21:12:00,34.0,34.0,-100.00,SSW,198,0.0,0.0,100,0.00,,,0.00,,2013-03-23 04:12:00,
2013-03-22 21:22:00,35.0,35.0,-100.00,SSW,198,0.0,0.0,100,0.00,,,0.00,,2013-03-23 04:22:00,
2013-03-22 21:32:00,35.0,35.0,-100.00,SSW,198,0.0,0.0,100,0.00,,,0.00,,2013-03-23 04:32:00,
2013-03-22 21:42:00,35.0,35.0,-100.00,SSW,198,0.0,0.0,100,0.00,,,0.00,,2013-03-23 04:42:00,
2013-03-22 21:52:00,34.0,34.0,-100.00,SSW,198,0.0,0.0,100,0.00,,,0.00,,2013-03-23 04:52:00,
2013-03-22 22:02:00,34.0,34.0,-100.00,SSW,198,0.0,0.0,100,0.00,,,0.00,,2013-03-23 05:02:00,
2013-03-22 22:11:00,34.0,34.0,-100.00,SSW,198,0.0,0.0,100,0.00,,,0.00,,2013-03-23 05:11:00,
2013-03-22 22:21:00,33.0,33.0,-100.00,SSW,198,0.0,0.0,100,0.00,,,0.00,,2013-03-23 05:21:00,
2013-03-22 22:32:00,32.0,32.0,-100.00,SSW,198,0.0,0.0,100,0.00,,,0.00,,2013-03-23 05:32:00,
2013-03-22 22:42:00,32.0,32.0,-100.00,SSW,198,0.0,0.0,100,0.00,,,0.00,,2013-03-23 05:42:00,
2013-03-22 22:52:00,32.0,32.0,-100.00,SSW,198,0.0,0.0,100,0.00,,,0.00,,2013-03-23 05:52:00,
2013-03-22 23:02:00,31.0,31.0,-100.00,SSW,198,0.0,0.0,100,0.00,,,0.00,,2013-03-23 06:02:00,
2013-03-22 23:11:00,31.0,31.0,-100.00,SSW,198,0.0,0.0,100,0.00,,,0.00,,2013-03-23 06:11:00,
2013-03-22 23:22:00,31.0,31.0,-100.00,SSW,198,0.0,0.0,100,0.00,,,0.00,,2013-03-23 06:22:00,
2013-03-22 23:32:00,31.0,31.0,-100.00,SSW,198,0.0,0.0,100,0.00,,,0.00,,2013-03-23 06:32:00,
2013-03-22 23:41:00,31.0,31.0,-100.00,SSW,198,0.0,0.0,100,0.00,,,0.00,,2013-03-23 06:41:00,
2013-03-22 23:51:00,31.0,31.0,-100.00,SSW,198,0.0,0.0,100,0.00,,,0.00,,2013-03-23 06:51:00,